Regional Weather Roundup
Issued by NWS

Home | Current Version | Previous Version | Text Only | Print | Product List | Glossary Off
Versions: 1 2 3 4 5 6 7 8 9 10 11 12 13 14 15 16 17 18 19 20 21 22 23 24 25 26 27 28 29 30 31 32 33 34 35 36 37 38 39 40 41 42 43 44 45 46 47 48 49 50

000
ASUS43 KDTX 281010
RWRMI
MICHIGAN HOURLY REGIONAL WEATHER ROUNDUP
NATIONAL WEATHER SERVICE DETROIT/PONTIAC MI
ISSUED BY NATIONAL WEATHER SERVICE GRAND RAPIDS MI
600 AM EDT SUN MAY 28 2017

NOTE: "FAIR" INDICATES FEW OR NO CLOUDS BELOW 12,000 FEET WITH NO
SIGNIFICANT WEATHER AND/OR OBSTRUCTION TO VISIBILITY.

MIZ047>049-052>055-059>063-066>070-074>076-081>083-281100-
SOUTHEAST LOWER MICHIGAN

CITY           SKY/WX    TMP DP  RH WIND       PRES   REMARKS
ADRIAN         MOCLDY    56  54  93 NE5       29.79F
ALMA           CLOUDY    60  58  93 CALM      29.81S
ANN ARBOR      CLOUDY    57  54  89 MISG      29.80F
BAD AXE        CLOUDY    53  52  94 CALM      29.82F
DETROIT CITY   CLOUDY    59  55  87 E5        29.82F
DETROIT        CLOUDY    61  52  72 NE5       29.81F
FLINT          CLOUDY    59  55  87 CALM      29.82F
GROSSE ILE     CLOUDY    57  52  82 E6        29.80F
HILLSDALE      PTCLDY    52  50  93 NE3       29.79F
HOWELL         CLOUDY    59  54  85 CALM      29.82F

CITY           SKY/WX    TMP DP  RH WIND       PRES   REMARKS
JACKSON        CLOUDY    59  55  87 NE3       29.80F
LANSING        CLOUDY    60  55  83 CALM      29.81F
MASON          CLOUDY    59  55  88 CALM      29.80F
MONROE         CLOUDY    57  55  91 E3        29.79F
MT. CLEMENS    CLOUDY    55  55 100 N3        29.82F
PONTIAC        CLOUDY    58  54  86 VRB3      29.81F
PORT HOPE        N/A     56  52  86 VRB3      29.80F
PORT HURON     MOCLDY    50  50 100 CALM      29.84F
TRI CITIES     CLOUDY    61  58  90 S7        29.81F
YPSILANTI      CLOUDY    58  55  90 NE5       29.81F
$$
MIZ043>046-050>051-056>058-064>065-071>073-077>080-281100-
SOUTHWEST LOWER MICHIGAN

CITY           SKY/WX    TMP DP  RH WIND       PRES   REMARKS
BATTLE CREEK   CLEAR     59  55  87 E6        29.79F
BENTON HARBOR  CLOUDY    55  53  93 E3        29.75F FOG
BIG RAPIDS     CLOUDY    56  53  91 CALM      29.78S
COLDWATER      CLEAR     56  55  96 E3        29.78F
HOLLAND        CLOUDY    61  56  83 SE7       29.77F
GRAND RAPIDS   CLOUDY    60  58  92 CALM      29.78F
KALAMAZOO      CLEAR     56  53  90 CALM      29.78F FOG
MARSHALL       CLEAR     55  55  97 CALM      29.78F
MOUNT PLEASANT CLOUDY    60  56  89 SE6       29.78F
MUSKEGON       CLOUDY    60  53  77 SE3       29.77F
STURGIS        CLEAR     57  54  89 E6        29.76F
$$
MIZ016>042-281100-
NORTHERN LOWER MICHIGAN

CITY           SKY/WX    TMP DP  RH WIND       PRES   REMARKS
ALPENA         CLOUDY    57  55  93 CALM      29.80F
BEAVER ISLAND  CLOUDY    60  52  76 SW7       29.76F
BELLAIRE       CLOUDY    55  53  94 CALM      29.77F
CADILLAC       CLOUDY    55  53  94 CALM      29.78S
CHARLEVOIX     CLOUDY    56  56  99 SE3       29.80S
GAYLORD        CLOUDY    59  53  80 SW5       29.78F
HOUGHTON LAKE  CLOUDY    56  53  90 E3        29.80F
MANISTEE       CLOUDY    53  51  93 E5        29.75F
OSCODA         MOCLDY    52  49  90 W7        29.79F
PELLSTON       CLOUDY    52  50  93 CALM      29.77F
TRAVERSE CITY  CLOUDY    58  53  84 CALM      29.75F
LUDINGTON      CLOUDY    57  52  84 CALM      29.77F
$$
MIZ007>008-015-281100-
EASTERN UPPER MICHIGAN

CITY           SKY/WX    TMP DP  RH WIND       PRES   REMARKS
KINROSS        CLOUDY    53  51  93 E6        29.78F
MACKINAC ISLAN CLOUDY    50  50 100 CALM      29.77S
NEWBERRY       CLOUDY    52  51  97 CALM      29.77R
S. S. MARIE    CLOUDY    55  50  83 E3        29.78F
$$
MIZ004>006-011>014-085-281100-
CENTRAL UPPER MICHIGAN

CITY           SKY/WX    TMP DP  RH WIND       PRES   REMARKS
MANISTIQUE     CLOUDY    47  44  90 CALM      29.75F
ESCANABA       LGT RAIN  54  53  97 N5        29.74F
SAWYER-GWINN   LGT RAIN  55  53  92 CALM      29.75F
$$
MIZ001>003-009>011-084-281100-
WESTERN UPPER MICHIGAN

CITY           SKY/WX    TMP DP  RH WIND       PRES   REMARKS
IRON MOUNTAIN  CLOUDY    56  52  86 CALM      29.74F
HOUGHTON       CLOUDY    52  49  89 W3        29.72S
COPPER HARBOR    N/A     56  51  84 SW9       29.71S
IRONWOOD       LGT RAIN  59  48  67 CALM      29.75S
$$

ABBREVIATIONS USED IN REMARKS
   TC - TEMPERATURE IN CELSIUS
  WCI - WIND CHILL INDEX
   HX - HEAT INDEX
  VSB - VISIBILITY





USA.gov is the U.S. government's official web portal to all federal, state and local government web resources and services.